When you browse on this site, cookies collect data to enhance your experience and personalize the content and advertising you see.
Visit our Privacy Policy to learn more. By continuing to use the site, you agree to this use of cookies and data.
  • In United Kingdom
  • List of Countries
  • For 7 days
  • Water Temperature
  • Weather Map
  • Weather Widgets
  • user-avatar
    Login

    Hourly Weather Dahab

    Today, 19 September, Thursday

    Time Temperature Precipitation Wind Pressure Humidity
    00:00 +30°C° 0 mm 3 mps 712 mmHg 23%
    01:00 +29°C° 0 mm 3 mps 711 mmHg 23%
    02:00 +29°C° 0 mm 3 mps 711 mmHg 23%
    03:00 +29°C° 0 mm 3 mps 711 mmHg 24%
    04:00 +28°C° 0 mm 3 mps 711 mmHg 25%
    05:00 +28°C° 0 mm 2 mps 711 mmHg 27%
    06:00 +31°C° 0 mm 2 mps 712 mmHg 23%
    07:00 +35°C° 0 mm 2 mps 712 mmHg 19%
    08:00 +38°C° 0 mm 2 mps 713 mmHg 14%
    09:00 +40°C° 0 mm 3 mps 713 mmHg 14%
    10:00 +42°C° 0 mm 3 mps 713 mmHg 14%
    11:00 +43°C° 0 mm 4 mps 713 mmHg 13%
    12:00 +43°C° 0 mm 4 mps 712 mmHg 14%
    13:00 +43°C° 0 mm 3 mps 712 mmHg 14%
    14:00 +43°C° 0 mm 3 mps 711 mmHg 15%
    15:00 +42°C° 0 mm 3 mps 711 mmHg 15%
    16:00 +40°C° 0 mm 2 mps 711 mmHg 16%
    17:00 +40°C° 0 mm 1 mps 711 mmHg 16%
    18:00 +38°C° 0 mm 2 mps 711 mmHg 20%
    19:00 +36°C° 0 mm 2 mps 712 mmHg 23%
    20:00 +34°C° 0 mm 3 mps 712 mmHg 27%
    21:00 +33°C° 0 mm 3 mps 712 mmHg 28%
    22:00 +33°C° 0 mm 3 mps 712 mmHg 29%
    23:00 +31°C° 0 mm 3 mps 712 mmHg 30%

    Tomorrow, 20 September, Friday

    Time Temperature Precipitation Wind Pressure Humidity
    00:00 +30°C° 0 mm 3 mps 711 mmHg 31%
    01:00 +30°C° 0 mm 3 mps 711 mmHg 32%
    02:00 +29°C° 0 mm 3 mps 711 mmHg 33%
    03:00 +29°C° 0 mm 3 mps 711 mmHg 32%
    04:00 +29°C° 0 mm 3 mps 711 mmHg 32%
    05:00 +29°C° 0 mm 2 mps 711 mmHg 32%
    06:00 +33°C° 0 mm 3 mps 711 mmHg 28%
    07:00 +35°C° 0 mm 3 mps 712 mmHg 24%
    08:00 +38°C° 0 mm 3 mps 712 mmHg 21%
    09:00 +40°C° 0 mm 4 mps 712 mmHg 21%
    10:00 +40°C° 0 mm 4 mps 712 mmHg 20%
    11:00 +41°C° 0 mm 5 mps 712 mmHg 20%
    12:00 +42°C° 0 mm 4 mps 711 mmHg 19%
    13:00 +42°C° 0 mm 4 mps 711 mmHg 19%
    14:00 +42°C° 0 mm 4 mps 710 mmHg 18%
    15:00 +42°C° 0 mm 3 mps 710 mmHg 19%
    16:00 +40°C° 0 mm 3 mps 710 mmHg 20%
    17:00 +39°C° 0 mm 2 mps 710 mmHg 21%
    18:00 +37°C° 0 mm 3 mps 710 mmHg 25%
    19:00 +35°C° 0 mm 3 mps 711 mmHg 28%
    20:00 +33°C° 0 mm 3 mps 711 mmHg 32%
    21:00 +31°C° 0 mm 3 mps 711 mmHg 31%
    22:00 +31°C° 0 mm 3 mps 711 mmHg 30%
    23:00 +31°C° 0 mm 3 mps 711 mmHg 29%

    Day after tomorrow, 21 September, Saturday

    Time Temperature Precipitation Wind Pressure Humidity
    00:00 +30°C° 0 mm 3 mps 711 mmHg 33%
    01:00 +29°C° 0 mm 4 mps 711 mmHg 36%
    02:00 +28°C° 0 mm 4 mps 710 mmHg 40%
    03:00 +27°C° 0 mm 3 mps 710 mmHg 41%
    04:00 +27°C° 0 mm 3 mps 710 mmHg 42%
    05:00 +26°C° 0 mm 3 mps 710 mmHg 43%
    06:00 +29°C° 0 mm 3 mps 711 mmHg 38%
    07:00 +31°C° 0 mm 3 mps 711 mmHg 33%
    08:00 +34°C° 0 mm 3 mps 712 mmHg 28%
    09:00 +36°C° 0 mm 4 mps 712 mmHg 27%
    10:00 +37°C° 0 mm 4 mps 711 mmHg 25%
    11:00 +39°C° 0 mm 5 mps 711 mmHg 24%
    12:00 +40°C° 0 mm 5 mps 711 mmHg 23%
    13:00 +40°C° 0 mm 4 mps 710 mmHg 22%
    14:00 +41°C° 0 mm 4 mps 710 mmHg 21%
    15:00 +38°C° 0 mm 4 mps 710 mmHg 22%
    16:00 +37°C° 0 mm 4 mps 710 mmHg 24%
    17:00 +36°C° 0 mm 4 mps 710 mmHg 26%
    18:00 +34°C° 0 mm 4 mps 710 mmHg 28%
    19:00 +31°C° 0 mm 3 mps 710 mmHg 31%
    20:00 +29°C° 0 mm 3 mps 710 mmHg 34%
    21:00 +28°C° 0 mm 3 mps 710 mmHg 35%
    22:00 +27°C° 0 mm 3 mps 710 mmHg 36%
    23:00 +27°C° 0 mm 3 mps 710 mmHg 37%

    22 September, Sunday

    Time Temperature Precipitation Wind Pressure Humidity
    00:00 +26°C° 0 mm 3 mps 710 mmHg 37%
    01:00 +26°C° 0 mm 3 mps 710 mmHg 37%
    02:00 +25°C° 0 mm 3 mps 710 mmHg 38%
    03:00 +25°C° 0 mm 3 mps 710 mmHg 38%
    04:00 +24°C° 0 mm 3 mps 710 mmHg 39%
    05:00 +24°C° 0 mm 3 mps 710 mmHg 40%
    06:00 +26°C° 0 mm 3 mps 710 mmHg 33%
    07:00 +29°C° 0 mm 3 mps 711 mmHg 26%
    08:00 +33°C° 0 mm 3 mps 711 mmHg 19%
    09:00 +34°C° 0 mm 4 mps 711 mmHg 18%
    10:00 +35°C° 0 mm 5 mps 711 mmHg 17%
    11:00 +37°C° 0 mm 5 mps 711 mmHg 16%
    12:00 +37°C° 0 mm 5 mps 711 mmHg 17%
    13:00 +37°C° 0 mm 5 mps 710 mmHg 17%
    14:00 +37°C° 0 mm 5 mps 710 mmHg 18%
    15:00 +36°C° 0 mm 4 mps 710 mmHg 20%
    16:00 +35°C° 0 mm 4 mps 710 mmHg 22%
    17:00 +34°C° 0 mm 3 mps 710 mmHg 24%
    18:00 +31°C° 0 mm 3 mps 710 mmHg 27%
    19:00 +29°C° 0 mm 3 mps 711 mmHg 31%
    20:00 +27°C° 0 mm 4 mps 711 mmHg 34%
    21:00 +26°C° 0 mm 3 mps 711 mmHg 38%
    22:00 +26°C° 0 mm 3 mps 711 mmHg 42%
    23:00 +25°C° 0 mm 3 mps 711 mmHg 46%

    23 September, Monday

    Time Temperature Precipitation Wind Pressure Humidity
    00:00 +25°C° 0 mm 3 mps 711 mmHg 47%
    01:00 +24°C° 0 mm 3 mps 711 mmHg 48%
    02:00 +24°C° 0 mm 3 mps 710 mmHg 49%
    03:00 +22°C° 0 mm 3 mps 710 mmHg 49%
    04:00 +22°C° 0 mm 3 mps 710 mmHg 48%
    05:00 +21°C° 0 mm 3 mps 710 mmHg 48%
    06:00 +25°C° 0 mm 3 mps 711 mmHg 40%
    07:00 +27°C° 0 mm 3 mps 712 mmHg 32%
    08:00 +30°C° 0 mm 3 mps 712 mmHg 25%
    09:00 +32°C° 0 mm 4 mps 712 mmHg 23%
    10:00 +34°C° 0 mm 5 mps 712 mmHg 21%
    11:00 +35°C° 0 mm 5 mps 712 mmHg 19%
    12:00 +36°C° 0 mm 5 mps 712 mmHg 19%
    13:00 +36°C° 0 mm 5 mps 711 mmHg 19%
    14:00 +37°C° 0 mm 5 mps 711 mmHg 19%
    15:00 +36°C° 0 mm 4 mps 711 mmHg 20%
    16:00 +35°C° 0 mm 4 mps 710 mmHg 22%
    17:00 +34°C° 0 mm 4 mps 710 mmHg 24%
    18:00 +32°C° 0 mm 4 mps 710 mmHg 29%
    19:00 +29°C° 0 mm 4 mps 711 mmHg 34%
    20:00 +27°C° 0 mm 4 mps 711 mmHg 38%
    21:00 +26°C° 0 mm 3 mps 711 mmHg 41%
    22:00 +26°C° 0 mm 3 mps 711 mmHg 43%
    23:00 +25°C° 0 mm 3 mps 711 mmHg 45%

    24 September, Tuesday

    Time Temperature Precipitation Wind Pressure Humidity
    00:00 +25°C° 0 mm 3 mps 711 mmHg 46%
    01:00 +24°C° 0 mm 3 mps 711 mmHg 47%
    02:00 +24°C° 0 mm 3 mps 711 mmHg 48%
    03:00 +22°C° 0 mm 3 mps 711 mmHg 50%
    04:00 +22°C° 0 mm 3 mps 711 mmHg 51%
    05:00 +21°C° 0 mm 3 mps 710 mmHg 52%
    06:00 +25°C° 0 mm 3 mps 711 mmHg 45%
    07:00 +27°C° 0 mm 3 mps 712 mmHg 38%
    08:00 +30°C° 0 mm 3 mps 712 mmHg 30%
    09:00 +31°C° 0 mm 3 mps 712 mmHg 28%
    10:00 +34°C° 0 mm 4 mps 712 mmHg 26%
    11:00 +35°C° 0 mm 4 mps 712 mmHg 24%
    12:00 +36°C° 0 mm 4 mps 711 mmHg 24%
    13:00 +36°C° 0 mm 4 mps 711 mmHg 24%
    14:00 +36°C° 0 mm 3 mps 710 mmHg 24%
    15:00 +36°C° 0 mm 3 mps 710 mmHg 25%
    16:00 +35°C° 0 mm 2 mps 710 mmHg 27%
    17:00 +34°C° 0 mm 2 mps 710 mmHg 28%
    18:00 +31°C° 0 mm 2 mps 710 mmHg 31%
    19:00 +29°C° 0 mm 3 mps 710 mmHg 34%
    20:00 +27°C° 0 mm 3 mps 711 mmHg 37%
    21:00 +27°C° 0 mm 3 mps 711 mmHg 38%
    22:00 +26°C° 0 mm 3 mps 711 mmHg 40%
    23:00 +25°C° 0 mm 3 mps 711 mmHg 41%
    Show more